Airfield :
LOGIN :

Register | Disclaimer

   EN    FR    IT 

 










Legend :    VFR   Marginal VFR   IFR   Intensive IFR   Very Intensive IFR
Visi :
Ceiling :
>= 8 km
>= 3000ft
5 to 8 km
1000 to 3000 ft
1500m to 5 km
500 to 1000 ft
800 to 1500m
200 to 500 ft
< 800m
< 200 ft
Symbols :   Thunderstorms  Fog  Heavy snow  Heavy precipitations  Wind > 20 kt
SIGMETs :     Misc.  Thunderstorms  Icing  Turbulence  Mountain Waves  Volcanic Ashes






- Airport Elevation : 270 ft
- IATA code : OXF


EGTK - Oxford (Kidlington)

CURRENT METAR :
  • 171850Z 16004KT CAVOK 17/13 Q1012

EXPIRED METARs :
  • 171820Z 17005KT 9999 FEW038 18/13 Q1012
  • 171750Z 17005KT 9999 FEW038 18/13 Q1012
  • 171720Z 16007KT 9999 FEW034 19/12 Q1012
  • 171650Z 17007KT 9999 BKN049 19/13 Q1012
  • 171620Z 18007KT 9999 FEW038 20/13 Q1012

TAF TAF EGTK
Valid from the 17 at 18:00 until the 17 at 22:00 UTC


171659Z 1718/1722 16005KT 9999 SCT040
PROB30
TEMPO 1721/1722 7000



MET'MAP, your aeronautical weather chart ! - Copyright ORBIFLY December 2007 - Disclaimer

ORBIFLY MET'MAP TEAM :

Programming & Development : Alexandra Zaïnal
Concept & original design : Baudouin d'Aumeries
Assistance for programming : Marc-Olivier Méhu
Technical & hardware support : Manuel Goepfert

Contact : metmap@orbifly.com




SOURCES & CREDITS :

   NOAA